433  
ASUS44 KEWX 020811  
RWRTX  
SOUTH TEXAS REGIONAL WEATHER ROUNDUP  
NATIONAL WEATHER SERVICE AUSTIN/SAN ANTONIO TX  
300 AM CDT MON MAY 02 2016  
 
NOTE: "FAIR" INDICATED FEW OR NO CLOUDS BELOW 12,000 FEET WITH NO  
SIGNIFICANT WEATHER AND/OR S TO VISIBILITY
.  
 
* - THESE STATIONS ARE NOT NWS OR FAA STATIONS...AND ARE NOT SUBJECT  
TO NWS AND FAA QUALITY CONTROL.
 
 
TXZ171-172-183>190-020900-  
TEXAS HILL COUNTRY AND EDWARDS PLATEAU  
 
CITY SKY/WX TMP DP RH WIND PRES REMARKS
 
JUNCTION CLOUDY 59 46 62 N9 30.09R  
*LLANO CLOUDY 61 48 63 N9 30.09R  
BURNET CLOUDY 62 48 60 N15G24 30.06R  
*HORSESHOE BAY CLOUDY 65 51 60 N6 30.05R  
*KERRVILLE CLOUDY 64 51 63 N13 30.03S  
*FREDERICKSBRG LGT RAIN 61 49 64 NE14 30.03F  
*ROCKSPRINGS CLOUDY 59 46 63 N12G21 30.06F  
*BOERNE STAGE CLOUDY 63 50 63 N9G17 30.01S  
*CASTROVILLE CLOUDY 69 49 48 NE12G18 29.98S  
HONDO CLOUDY 69 52 54 NE14G23 29.98S  
*UVALDE CLOUDY 69 54 58 NW5 29.99R  
DEL RIO CLOUDY 65 49 56 N16G22 30.03S  
LAUGHLIN AFB CLOUDY 65 51 59 N14 30.03R  
CARRIZO SPRGS DRIZZLE 70 59 68 N6 29.96F  
*EAGLE PASS CLOUDY 66 48 52 NW13G18 30.00F  

 
 
TXZ173-191>194-202-209-217>225-228-020900-  
CENTRAL AND SOUTH CENTRAL TEXAS  
 
CITY SKY/WX TMP DP RH WIND PRES REMARKS
 
GEORGETOWN N/A N/A N/A N/A MISG N/A  
AUSTIN/BERGSTM CLOUDY 64 57 78 N13 29.98F THUNDER  
AUSTIN/MABRY CLOUDY 68 52 56 N7 30.00S  
*AUSTIN/EXEC CLOUDY 63 57 82 N12 29.99F  
*LAGO VISTA CLOUDY 65 51 60 NE10 30.02F  
SAN MARCOS CLOUDY 63 55 77 N15G23 29.98F  
NEW BRAUNFELS CLOUDY 64 59 83 N9 29.96S  
RANDOLPH AFB CLOUDY 68 52 56 N14 29.95F  
PT SAN ANTONIO CLOUDY 70 52 53 N15 29.95R  
SAN ANTONIO CLOUDY 69 51 52 N12 29.96F  
STINSON FIELD CLOUDY 72 52 49 NE16G23 29.93S  
*PLEASANTON CLOUDY 69 55 60 NE13G20 29.94R  
*LA GRANGE N/A 69 59 69 N10 29.94R THUNDER  
*GIDDINGS LGT RAIN 66 56 69 N8 29.99S  
*GONZALES CLOUDY 67 59 75 N14G20 29.94F  

 
 
TXZ163>164-176>182-195>201-210>213-226-227-235-020900-  
SOUTHEAST TEXAS  
 
CITY SKY/WX TMP DP RH WIND PRES REMARKS
 
COLLEGE STN CLOUDY 65 59 81 N14 29.96S  
*BRYAN CLOUDY 64 60 87 N8 29.97F  
*CALDWELL CLOUDY 63 61 94 N6 29.99F  
*CROCKETT CLOUDY 64 59 82 N10G17 29.97F  
*BRENHAM CLOUDY 69 60 72 N7 29.96R  
HUNTSVILLE CLOUDY 66 62 87 N7 29.96S  
CONROE TSTM 70 69 97 N3 29.94R FOG  
HOUSTON BUSH CLOUDY 71 70 96 NE5 29.91R  
HOUSTON HOBBY LGT RAIN 74 71 91 NE6 29.90R  
*HOUSTON SW AP RAIN 73 71 91 E3 29.91R  
PEARLAND LGT RAIN 75 72 90 E5 29.92R  
HOUSTON HOOKS CLOUDY 72 71 97 N3 29.92R  
ELLINGTON FLD LGT RAIN 75 73 94 NE5 29.92S  
SUGAR LAND CLOUDY 74 70 87 E6 29.90R  
*HOUSTON EXEC CLOUDY 72 70 94 N7 29.93R  
*CLEVELAND MUN CLOUDY 71 71 99 CALM 29.92F FOG  
*WHARTON CLOUDY 74 71 88 NE3 29.90S  
*COLUMBUS CLOUDY 69 65 86 NW3 29.92R  
*EAGLE LAKE CLOUDY 69 65 88 N8 29.91F  

 
 
TXZ214>216-236>238-020900-  
THE UPPER TEXAS COAST  
 
CITY SKY/WX TMP DP RH WIND PRES REMARKS
 
*ORANGE CLOUDY 72 68 88 CALM 29.92F  
PORT ARTHUR CLOUDY 72 70 93 NE8 29.89F  
GALVESTON LGT RAIN 70 68 93 E16G24 29.89F  
ANGLETON RAIN 74 72 93 NE6 29.88S  
*BAY CITY RAIN 74 74 98 CALM 29.88S  
PALACIOS NOT AVBL  

 
 
TXZ229>234-239>247-020900-  
TEXAS COASTAL BEND AND RIO GRANDE PLAINS  
 
CITY SKY/WX TMP DP RH WIND PRES REMARKS
 
VICTORIA CLOUDY 69 68 96 N10 29.89F FOG  
*BEEVILLE CLOUDY 72 64 75 NE10 29.88F  
ROCKPORT CLOUDY 79 75 87 NE12 29.85S  
*PORT ARANSAS CLOUDY 78 78 99 E9 29.84S  
*PORT LAVACA CLOUDY 75 73 94 NE8 29.87F  
*INGLESIDE CLOUDY 69 65 89 N10 29.85R  
CORPUS CHRISTI CLOUDY 77 70 79 N15 29.86R  
CORPUS NAS LGT RAIN 80 78 94 E10 29.85R  
*ROBSTOWN CLOUDY 75 68 77 N8 29.88R  
ALICE CLOUDY 74 64 71 N9 29.87S  
KINGSVILLE NAS MOCLDY 75 70 84 N12 29.85F  
COTULLA CLOUDY 74 55 51 N7 29.96R  
*FAITH RANCH N/A N/A N/A N/A MISG N/A  
LAREDO CLOUDY 74 61 63 N13 29.92R  

 
 
TXZ248>255-020900-  
DEEP SOUTH TEXAS  
 
CITY SKY/WX TMP DP RH WIND PRES REMARKS
 
BROWNSVILLE CLOUDY 77 76 96 NE3 29.82F FOG  
PORT ISABEL CLOUDY 80 77 90 E3 29.81S FOG  
*SOUTH PADRE N/A 79 77 94 E8 29.81F  
HARLINGEN CLOUDY 78 75 90 N6 29.83S FOG  
*HEBBRONVILLE MOCLDY 73 64 73 NE9 29.89S  
MCALLEN CLOUDY 80 74 81 N7 29.84F  
*WESLACO CLOUDY 77 74 90 N3 29.83F FOG  
FALFURRIAS PTCLDY 76 67 73 NE8G17 29.84F  
EDINBURG CLOUDY 79 74 84 N5 29.84F HAZE  
*ZAPATA CLOUDY 78 71 80 N8 29.87S  

 
 
TXZ213>215-236>238-242>244-246-247-251-254-255-020900-  
CMAN STATIONS  
 
STATION/POSITION TIME TEMP WIND PRES WAVE
 
AIR SEA DIR/SP/G HT/PER  
(UTC) (F) (DEG/KT/KT) (MB) (FT/S)  
SABINE PASS 0700 74 78 100/ 9/ 12 1014.0  
SEA RIM ST PARK 0800 74 120/ 11/ 15 1012.8  
NORTH JETTY/GLS 0700 72 78 N/A  
EAGLE POINT 0700 74 72 110/ 12/ 13 1012.5  
MORGANS POINT 0700 73 73 60/ 9/ 12 1012.3  
MISSION/ARANSAS 0700 79 1012.0  
PORT O'CONNOR 0700 90/ 13/ 16 N/A  
PORT ARANSAS 0800 78 81 40/ 13/ 14 1010.9  
MALAQUITE BEACH 0700 79 81 50/ 11/ 14 1010.7  
BAFFIN BAY 0700 79 84 50/ 11/ 12 1010.6  
PORT ISABEL 0700 79 78 1009.6  

 
 
GMZ080-GMZ150>470-020900-  
OFFSHORE BUOY REPORTS  
 
STATION/POSITION TIME TEMP WIND PRES WAVE
 
AIR SEA DIR/SP/G HT/PER  
(UTC) (F) (DEG/KT/KT) (MB) (FT/S)  
20 E GALVESTON 0750 75 76 140/ 16/ 21 1010.6 7/ 7  
90 E PT ARANSAS 0750 76 77 70/ 19/ 21 1010.1 6/ 7  
35 NE PT MANSFLD 0750 78 79 110/ 8/ 10 1009.4 4/ 7  
200 E PT ISABEL 0750 N/A 5/ 8  

 
 
 
CLICK HERE TO GO TO PREVIOUS BULLETINS.

The Nexlab TX Page Main Text Page